Louisville Bowman, KY

10:16 PM EDT on April 23, 2017 (GMT -0400)
Bowman

Weather History for KLOU - November, 2011

Change the Weather History Date:

Tuesday, November 15, 2011

  Actual Average Record
Temperature  
Mean Temperature 58 °F 48 °F  
Max Temperature 61 °F 57 °F 77 °F (1955)
Min Temperature 54 °F 39 °F 19 °F (2014)
Degree Days  
Heating Degree Days 7 17  
Month to date heating degree days 167 217  
Since 1 July heating degree days 459 493  
Cooling Degree Days 0 0  
Month to date cooling degree days 3 0  
Year to date cooling degree days 1725 1442  
Growing Degree Days 7 (Base 50)    
Moisture  
Dew Point 55 °F    
Average Humidity 92    
Maximum Humidity 100    
Minimum Humidity 83    
Precipitation  
Precipitation 0.84 in 0.13 in 1.55 in (2005)
Month to date precipitation 2.12 1.76  
Year to date precipitation 59.36 39.68  
Sea Level Pressure  
Sea Level Pressure 29.87 in    
Wind  
Wind Speed 3 mph (South)    
Max Wind Speed 21 mph    
Max Gust Speed 25 mph    
Visibility 8 miles    
Events Rain    
T = Trace of Precipitation, MM = Missing Value Source: NWS Daily Summary

Daily Weather History Graph

Daily Weather History Graph

Search for Another Location

Airport or City:

Trip Planner

Search our weather history database for the weather conditions in past years. The results will help you decide how hot, cold, wet, or windy it might be!

Date:

Astronomy

Nov. 15, 2011 Rise Set
Actual Time 7:23 AM EST 5:30 PM EST
Civil Twilight 6:55 AM EST 5:58 PM EST
Nautical Twilight 6:23 AM EST 6:30 PM EST
Astronomical Twilight 5:52 AM EST 7:01 PM EST
Moon 9:39 PM EST (11/15) 11:22 AM EST (11/15)
Length of Visible Light 11h 03m
Length of Day
10h 06m
Waning Gibbous, 79% of the Moon is Illuminated
Nov 15
Waning Gibbous
Nov 18
Last Quarter
Nov 25
New
Dec 2
First Quarter
Dec 10
Full

Hourly Weather History & Observations

Time (EST) Temp. Dew Point Humidity Pressure Visibility Wind Dir Wind Speed Gust Speed Precip Events Conditions
12:53 AM 61.0 °F 59.0 °F 93% 29.83 in 7.0 mi SSW 4.6 mph - 0.06 in Rain Light Rain
1:02 AM 60.8 °F 59.0 °F 94% 29.83 in 4.0 mi SW 3.5 mph - 0.02 in Rain Rain
1:32 AM 60.8 °F 60.8 °F 100% 29.85 in 5.0 mi WSW 5.8 mph - 0.06 in Rain Rain
1:40 AM 60.8 °F 60.8 °F 100% 29.85 in 7.0 mi WSW 6.9 mph - 0.06 in Rain Light Rain
1:53 AM 61.0 °F 60.1 °F 97% 29.84 in 4.0 mi WSW 5.8 mph - 0.09 in Rain Rain
2:53 AM 61.0 °F 57.9 °F 90% 29.86 in 10.0 mi West 8.1 mph - 0.03 in Rain Light Rain
3:53 AM 57.2 °F 53.6 °F 88% 29.88 in 10.0 mi NW 6.9 mph - N/A Rain Light Rain
4:53 AM 55.0 °F 50.0 °F 83% 29.89 in 10.0 mi NW 3.5 mph - 0.02 in Rain Light Rain
5:53 AM 55.0 °F 51.1 °F 86% 29.86 in 10.0 mi Calm Calm - 0.01 in Rain Light Rain
6:53 AM 53.6 °F 51.8 °F 94% 29.90 in 6.0 mi South 3.5 mph - N/A Rain Light Rain
7:53 AM 53.6 °F 51.8 °F 94% 29.91 in 7.0 mi SSE 4.6 mph - N/A Rain Light Rain
8:32 AM 55.4 °F 53.6 °F 94% 29.93 in 5.0 mi South 6.9 mph - 0.05 in Rain Rain
8:53 AM 55.9 °F 54.0 °F 93% 29.93 in 6.0 mi South 6.9 mph - 0.07 in Rain Light Rain
9:23 AM 55.4 °F 53.6 °F 94% 29.92 in 6.0 mi SSE 8.1 mph - 0.02 in Rain Light Rain
9:31 AM 55.4 °F 53.6 °F 94% 29.92 in 7.0 mi SSE 6.9 mph - 0.02 in Rain Light Rain
9:38 AM 55.4 °F 53.6 °F 94% 29.91 in 6.0 mi SSE 9.2 mph - 0.02 in Rain Light Rain
9:53 AM 55.9 °F 55.0 °F 97% 29.91 in 7.0 mi SSE 6.9 mph - 0.03 in Rain Light Rain
10:00 AM 55.4 °F 55.4 °F 100% 29.90 in 9.0 mi SSE 8.1 mph - 0.00 in Rain Light Rain
10:53 AM 57.0 °F 54.0 °F 89% 29.91 in 9.0 mi South 5.8 mph - 0.03 in Rain Light Rain
11:53 AM 57.0 °F 55.0 °F 93% 29.88 in 4.0 mi SSE 6.9 mph - 0.12 in Rain Rain
12:53 PM 57.0 °F 54.0 °F 89% 29.86 in 6.0 mi South 8.1 mph 16.1 mph 0.07 in Rain Rain
1:02 PM 57.2 °F 53.6 °F 88% 29.86 in 6.0 mi South 9.2 mph - 0.02 in Rain Rain
1:53 PM 57.0 °F 55.0 °F 93% 29.84 in 10.0 mi South 4.6 mph - 0.07 in Rain Light Rain
2:24 PM 57.2 °F 55.4 °F 94% 29.87 in 6.0 mi Calm Calm - 0.03 in Rain Light Rain
2:53 PM 57.0 °F 55.0 °F 93% 29.86 in 9.0 mi SSE 4.6 mph - 0.05 in Rain Light Rain
3:53 PM 57.0 °F 55.0 °F 93% 29.83 in 10.0 mi South 3.5 mph - 0.01 in Rain Light Rain
4:08 PM 57.2 °F 55.4 °F 94% 29.83 in 10.0 mi SSE 5.8 mph - 0.00 in   Overcast
4:24 PM 57.2 °F 55.4 °F 94% 29.84 in 10.0 mi Variable 4.6 mph - 0.01 in Rain Light Rain
4:53 PM 57.0 °F 55.0 °F 93% 29.84 in 10.0 mi Calm Calm - 0.01 in Rain Light Rain
5:53 PM 57.9 °F 55.0 °F 90% 29.86 in 10.0 mi Calm Calm - 0.01 in   Overcast
6:02 PM 57.2 °F 55.4 °F 94% 29.86 in 10.0 mi Calm Calm - N/A   Mostly Cloudy
6:53 PM 57.9 °F 55.9 °F 93% 29.86 in 10.0 mi Calm Calm - N/A   Overcast
7:53 PM 57.0 °F 55.9 °F 96% 29.87 in 10.0 mi Calm Calm - N/A   Overcast
8:33 PM 57.2 °F 55.4 °F 94% 29.88 in 10.0 mi South 3.5 mph - N/A   Overcast
8:53 PM 57.0 °F 55.9 °F 96% 29.88 in 10.0 mi Calm Calm - N/A   Overcast
9:48 PM 57.2 °F 55.4 °F 94% 29.86 in 10.0 mi Calm Calm - N/A   Overcast
9:53 PM 57.0 °F 55.9 °F 96% 29.85 in 10.0 mi Calm Calm - N/A   Overcast
10:13 PM 57.2 °F 55.4 °F 94% 29.86 in 10.0 mi Calm Calm - N/A   Overcast
10:53 PM 57.9 °F 55.9 °F 93% 29.86 in 10.0 mi Calm Calm - N/A   Overcast
11:21 PM 57.2 °F 55.4 °F 94% 29.86 in 10.0 mi Calm Calm - N/A   Overcast
11:28 PM 57.2 °F 55.4 °F 94% 29.86 in 10.0 mi Calm Calm - N/A   Overcast
11:40 PM 57.2 °F 55.4 °F 94% 29.86 in 10.0 mi Calm Calm - N/A   Overcast
11:49 PM 57.2 °F 55.4 °F 94% 29.86 in 10.0 mi Calm Calm - N/A   Overcast
11:53 PM 57.0 °F 55.9 °F 96% 29.86 in 10.0 mi Calm Calm - N/A   Overcast